Year,Month,Day,Hour,Minute,Value (Times are PST for temperature in C)
2017,06,24,00,00,14.50
2017,06,24,00,01,14.50
2017,06,24,00,02,14.40
2017,06,24,00,03,14.40
2017,06,24,00,04,14.40
2017,06,24,00,05,14.30
2017,06,24,00,06,14.30
2017,06,24,00,07,14.30
2017,06,24,00,08,14.20
2017,06,24,00,09,14.20
2017,06,24,00,10,14.10
2017,06,24,00,11,14.10
2017,06,24,00,12,14.10
2017,06,24,00,13,14.10
2017,06,24,00,14,14.10
2017,06,24,00,15,14.10
2017,06,24,00,16,14.10
2017,06,24,00,17,14.00
2017,06,24,00,18,14.00
2017,06,24,00,19,14.00
2017,06,24,00,20,14.00
2017,06,24,00,21,14.00
2017,06,24,00,22,14.00
2017,06,24,00,23,14.00
2017,06,24,00,24,14.00
2017,06,24,00,25,14.00
2017,06,24,00,26,14.00
2017,06,24,00,27,14.00
2017,06,24,00,28,13.90
2017,06,24,00,29,13.90
2017,06,24,00,30,13.90
2017,06,24,00,31,13.90
2017,06,24,00,32,13.90
2017,06,24,00,33,13.90
2017,06,24,00,34,13.90
2017,06,24,00,35,13.90
2017,06,24,00,36,13.90
2017,06,24,00,37,13.90
2017,06,24,00,38,13.90
2017,06,24,00,39,13.90
2017,06,24,00,40,13.90
2017,06,24,00,41,13.90
2017,06,24,00,42,13.90
2017,06,24,00,43,13.90
2017,06,24,00,44,13.90
2017,06,24,00,45,13.90
2017,06,24,00,46,13.90
2017,06,24,00,47,13.90
2017,06,24,00,48,13.80
2017,06,24,00,49,13.80
2017,06,24,00,50,13.80
2017,06,24,00,51,13.80
2017,06,24,00,52,13.80
2017,06,24,00,53,13.80
2017,06,24,00,54,13.80
2017,06,24,00,55,13.80
2017,06,24,00,56,13.80
2017,06,24,00,57,13.80
2017,06,24,00,58,13.90
2017,06,24,00,59,13.90
2017,06,24,01,00,13.90
2017,06,24,01,01,13.90
2017,06,24,01,02,13.90
2017,06,24,01,03,13.90
2017,06,24,01,04,13.90
2017,06,24,01,05,14.00
2017,06,24,01,06,14.00
2017,06,24,01,07,14.00
2017,06,24,01,08,14.00
2017,06,24,01,09,14.10
2017,06,24,01,10,14.10
2017,06,24,01,11,14.10
2017,06,24,01,12,14.10
2017,06,24,01,13,14.10
2017,06,24,01,14,14.00
2017,06,24,01,15,14.00
2017,06,24,01,16,14.00
2017,06,24,01,17,13.90
2017,06,24,01,18,13.90
2017,06,24,01,19,13.90
2017,06,24,01,20,13.90
2017,06,24,01,21,13.90
2017,06,24,01,22,13.90
2017,06,24,01,23,13.90
2017,06,24,01,24,13.90
2017,06,24,01,25,13.90
2017,06,24,01,26,13.80
2017,06,24,01,27,13.80
2017,06,24,01,28,13.70
2017,06,24,01,29,13.70
2017,06,24,01,30,13.70
2017,06,24,01,31,13.60
2017,06,24,01,32,13.60
2017,06,24,01,33,13.60
2017,06,24,01,34,13.60
2017,06,24,01,35,13.60
2017,06,24,01,36,13.50
2017,06,24,01,37,13.50
2017,06,24,01,38,13.50
2017,06,24,01,39,13.40
2017,06,24,01,40,13.40
2017,06,24,01,41,13.40
2017,06,24,01,42,13.40
2017,06,24,01,43,13.40
2017,06,24,01,44,13.40
2017,06,24,01,45,13.40
2017,06,24,01,46,13.40
2017,06,24,01,47,13.50
2017,06,24,01,48,13.50
2017,06,24,01,49,13.50
2017,06,24,01,50,13.60
2017,06,24,01,51,13.60
2017,06,24,01,52,13.70
2017,06,24,01,53,13.70
2017,06,24,01,54,13.80
2017,06,24,01,55,13.80
2017,06,24,01,56,13.90
2017,06,24,01,57,13.90
2017,06,24,01,58,13.90
2017,06,24,01,59,13.90
2017,06,24,02,00,14.00
2017,06,24,02,01,14.00
2017,06,24,02,02,14.00
2017,06,24,02,03,14.00
2017,06,24,02,04,14.00
2017,06,24,02,05,13.90
2017,06,24,02,06,13.90
2017,06,24,02,07,14.00
2017,06,24,02,08,14.00
2017,06,24,02,09,14.00
2017,06,24,02,10,14.00
2017,06,24,02,11,14.10
2017,06,24,02,12,14.10
2017,06,24,02,13,14.10
2017,06,24,02,14,14.10
2017,06,24,02,15,14.00
2017,06,24,02,16,14.10
2017,06,24,02,17,14.10
2017,06,24,02,18,14.10
2017,06,24,02,19,14.10
2017,06,24,02,20,14.10
2017,06,24,02,21,14.20
2017,06,24,02,22,14.20
2017,06,24,02,23,14.30
2017,06,24,02,24,14.30
2017,06,24,02,25,14.30
2017,06,24,02,26,14.40
2017,06,24,02,27,14.40
2017,06,24,02,28,14.50
2017,06,24,02,29,14.50
2017,06,24,02,30,14.60
2017,06,24,02,31,14.60
2017,06,24,02,32,14.60
2017,06,24,02,33,14.60
2017,06,24,02,34,14.60
2017,06,24,02,35,14.60
2017,06,24,02,36,14.60
2017,06,24,02,37,14.60
2017,06,24,02,38,14.60
2017,06,24,02,39,14.60
2017,06,24,02,40,14.60
2017,06,24,02,41,14.50
2017,06,24,02,42,14.50
2017,06,24,02,43,14.40
2017,06,24,02,44,14.40
2017,06,24,02,45,14.40
2017,06,24,02,46,14.40
2017,06,24,02,47,14.40
2017,06,24,02,48,14.40
2017,06,24,02,49,14.40
2017,06,24,02,50,14.40
2017,06,24,02,51,14.40
2017,06,24,02,52,14.40
2017,06,24,02,53,14.40
2017,06,24,02,54,14.40
2017,06,24,02,55,14.40
2017,06,24,02,56,14.40
2017,06,24,02,57,14.50
2017,06,24,02,58,14.50
2017,06,24,02,59,14.70
2017,06,24,03,00,14.80
2017,06,24,03,01,14.90
2017,06,24,03,02,15.00
2017,06,24,03,06,15.40
2017,06,24,03,07,15.50
2017,06,24,03,08,15.60
2017,06,24,03,09,15.70
2017,06,24,03,10,15.80
2017,06,24,03,11,15.90
2017,06,24,03,12,16.00
2017,06,24,03,13,16.10
2017,06,24,03,14,16.20
2017,06,24,03,15,16.20
2017,06,24,03,16,16.30
2017,06,24,03,17,16.30
2017,06,24,03,18,16.30
2017,06,24,03,19,16.40
2017,06,24,03,20,16.40
2017,06,24,03,21,16.40
2017,06,24,03,22,16.30
2017,06,24,03,23,16.20
2017,06,24,03,24,16.20
2017,06,24,03,25,16.10
2017,06,24,03,26,16.00
2017,06,24,03,27,16.00
2017,06,24,03,28,15.90
2017,06,24,03,29,15.80
2017,06,24,03,30,15.80
2017,06,24,03,31,15.80
2017,06,24,03,32,15.70
2017,06,24,03,33,15.70
2017,06,24,03,34,15.70
2017,06,24,03,35,15.60
2017,06,24,03,36,15.60
2017,06,24,03,37,15.60
2017,06,24,03,38,15.50
2017,06,24,03,39,15.50
2017,06,24,03,40,15.40
2017,06,24,03,41,15.40
2017,06,24,03,42,15.40
2017,06,24,03,43,15.40
2017,06,24,03,44,15.40
2017,06,24,03,45,15.40
2017,06,24,03,46,15.30
2017,06,24,03,47,15.30
2017,06,24,03,48,15.30
2017,06,24,03,49,15.30
2017,06,24,03,50,15.20
2017,06,24,03,51,15.20
2017,06,24,03,52,15.20
2017,06,24,03,53,15.30
2017,06,24,03,54,15.20
2017,06,24,03,55,15.20
2017,06,24,03,56,15.20
2017,06,24,03,57,15.30
2017,06,24,03,58,15.30
2017,06,24,03,59,15.40
2017,06,24,04,00,15.40
2017,06,24,04,01,15.50
2017,06,24,04,02,15.60
2017,06,24,04,03,15.60
2017,06,24,04,04,15.60
2017,06,24,04,05,15.70
2017,06,24,04,06,15.70
2017,06,24,04,07,15.70
2017,06,24,04,08,15.70
2017,06,24,04,09,15.70
2017,06,24,04,10,15.70
2017,06,24,04,11,15.70
2017,06,24,04,12,15.70
2017,06,24,04,13,15.70
2017,06,24,04,14,15.70
2017,06,24,04,15,15.70
2017,06,24,04,16,15.70
2017,06,24,04,17,15.70
2017,06,24,04,18,15.70
2017,06,24,04,19,15.70
2017,06,24,04,20,15.70
2017,06,24,04,21,15.70
2017,06,24,04,22,15.70
2017,06,24,04,23,15.70
2017,06,24,04,24,15.70
2017,06,24,04,25,15.60
2017,06,24,04,26,15.70
2017,06,24,04,27,15.70
2017,06,24,04,28,15.70
2017,06,24,04,29,15.80
2017,06,24,04,30,15.90
2017,06,24,04,31,15.90
2017,06,24,04,32,16.00
2017,06,24,04,33,16.00
2017,06,24,04,34,16.10
2017,06,24,04,35,16.10
2017,06,24,04,36,16.20
2017,06,24,04,37,16.20
2017,06,24,04,38,16.30
2017,06,24,04,39,16.40
2017,06,24,04,40,16.50
2017,06,24,04,41,16.60
2017,06,24,04,42,16.70
2017,06,24,04,43,16.80
2017,06,24,04,44,16.90
2017,06,24,04,45,16.90
2017,06,24,04,46,17.00
2017,06,24,04,47,17.10
2017,06,24,04,48,17.10
2017,06,24,04,49,17.20
2017,06,24,04,50,17.30
2017,06,24,04,51,17.50
2017,06,24,04,52,17.60
2017,06,24,04,53,17.80
2017,06,24,04,54,17.80
2017,06,24,04,55,17.80
2017,06,24,04,56,17.70
2017,06,24,04,57,17.70
2017,06,24,04,58,17.70
2017,06,24,04,59,17.60
2017,06,24,05,00,17.60
2017,06,24,05,01,17.50
2017,06,24,05,02,17.40
2017,06,24,05,03,17.40
2017,06,24,05,04,17.30
2017,06,24,05,05,17.30
2017,06,24,05,06,17.20
2017,06,24,05,07,17.20
2017,06,24,05,08,17.10
2017,06,24,05,09,17.10
2017,06,24,05,10,17.10
2017,06,24,05,11,17.10
2017,06,24,05,12,17.10
2017,06,24,05,13,17.00
2017,06,24,05,14,17.00
2017,06,24,05,15,16.90
2017,06,24,05,16,16.90
2017,06,24,05,17,16.90
2017,06,24,05,18,16.90
2017,06,24,05,19,16.80
2017,06,24,05,20,16.80
2017,06,24,05,21,16.80
2017,06,24,05,22,16.80
2017,06,24,05,23,16.70
2017,06,24,05,24,16.70
2017,06,24,05,25,16.60
2017,06,24,05,26,16.60
2017,06,24,05,27,16.60
2017,06,24,05,28,16.60
2017,06,24,05,29,16.60
2017,06,24,05,30,16.60
2017,06,24,05,31,16.70
2017,06,24,05,32,16.70
2017,06,24,05,33,16.80
2017,06,24,05,34,16.80
2017,06,24,05,35,16.90
2017,06,24,05,36,16.90
2017,06,24,05,37,17.00
2017,06,24,05,38,17.10
2017,06,24,05,39,17.20
2017,06,24,05,40,17.30
2017,06,24,05,41,17.30
2017,06,24,05,42,17.40
2017,06,24,05,43,17.40
2017,06,24,05,44,17.50
2017,06,24,05,45,17.60
2017,06,24,05,46,17.60
2017,06,24,05,47,17.60
2017,06,24,05,48,17.60
2017,06,24,05,49,17.70
2017,06,24,05,50,17.70
2017,06,24,05,51,17.80
2017,06,24,05,52,17.80
2017,06,24,05,53,17.80
2017,06,24,05,54,17.80
2017,06,24,05,55,17.80
2017,06,24,05,56,17.80
2017,06,24,05,57,17.90
2017,06,24,05,58,17.90
2017,06,24,05,59,17.90
2017,06,24,06,00,17.90
2017,06,24,06,01,17.90
2017,06,24,06,02,17.90
2017,06,24,06,03,18.00
2017,06,24,06,04,18.00
2017,06,24,06,05,18.00
2017,06,24,06,06,18.00
2017,06,24,06,07,18.00
2017,06,24,06,08,18.00
2017,06,24,06,09,18.10
2017,06,24,06,10,18.10
2017,06,24,06,11,18.10
2017,06,24,06,12,18.10
2017,06,24,06,13,18.10
2017,06,24,06,14,18.10
2017,06,24,06,15,18.10
2017,06,24,06,16,18.00
2017,06,24,06,17,17.90
2017,06,24,06,18,17.80
2017,06,24,06,19,17.80
2017,06,24,06,20,17.70
2017,06,24,06,21,17.60
2017,06,24,06,22,17.60
2017,06,24,06,23,17.50
2017,06,24,06,24,17.50
2017,06,24,06,25,17.40
2017,06,24,06,26,17.40
2017,06,24,06,27,17.40
2017,06,24,06,28,17.40
2017,06,24,06,29,17.40
2017,06,24,06,30,17.40
2017,06,24,06,31,17.40
2017,06,24,06,32,17.40
2017,06,24,06,33,17.40
2017,06,24,06,34,17.40
2017,06,24,06,35,17.40
2017,06,24,06,36,17.40
2017,06,24,06,37,17.40
2017,06,24,06,38,17.40
2017,06,24,06,39,17.40
2017,06,24,06,40,17.50
2017,06,24,06,41,17.50
2017,06,24,06,42,17.50
2017,06,24,06,43,17.50
2017,06,24,06,44,17.50
2017,06,24,06,45,17.50
2017,06,24,06,46,17.60
2017,06,24,06,47,17.60
2017,06,24,06,48,17.70
2017,06,24,06,49,17.70
2017,06,24,06,50,17.80
2017,06,24,06,51,17.80
2017,06,24,06,52,17.80
2017,06,24,06,53,17.90
2017,06,24,06,54,17.90
2017,06,24,06,55,18.00
2017,06,24,06,56,18.00
2017,06,24,06,57,18.10
2017,06,24,06,58,18.20
2017,06,24,06,59,18.30
2017,06,24,07,00,18.30
2017,06,24,07,01,18.40
2017,06,24,07,02,18.50
2017,06,24,07,03,18.60
2017,06,24,07,04,18.70
2017,06,24,07,05,18.70
2017,06,24,07,06,18.70
2017,06,24,07,07,18.70
2017,06,24,07,08,18.70
2017,06,24,07,09,18.80
2017,06,24,07,10,18.80
2017,06,24,07,11,18.90
2017,06,24,07,12,18.90
2017,06,24,07,13,18.90
2017,06,24,07,14,19.00
2017,06,24,07,15,19.10
2017,06,24,07,16,19.10
2017,06,24,07,17,19.20
2017,06,24,07,18,19.20
2017,06,24,07,19,19.20
2017,06,24,07,20,19.30
2017,06,24,07,21,19.30
2017,06,24,07,22,19.40
2017,06,24,07,23,19.40
2017,06,24,07,24,19.50
2017,06,24,07,25,19.50
2017,06,24,07,26,19.60
2017,06,24,07,27,19.70
2017,06,24,07,28,19.70
2017,06,24,07,29,19.80
2017,06,24,07,30,19.80
2017,06,24,07,31,19.90
2017,06,24,07,32,20.00
2017,06,24,07,33,20.10
2017,06,24,07,34,20.10
2017,06,24,07,35,20.10
2017,06,24,07,36,20.10
2017,06,24,07,37,20.20
2017,06,24,07,38,20.20
2017,06,24,07,39,20.30
2017,06,24,07,40,20.40
2017,06,24,07,41,20.50
2017,06,24,07,42,20.60
2017,06,24,07,43,20.70
2017,06,24,07,44,20.70
2017,06,24,07,45,20.70
2017,06,24,07,46,20.80
2017,06,24,07,47,20.80
2017,06,24,07,48,20.90
2017,06,24,07,49,20.90
2017,06,24,07,50,21.00
2017,06,24,07,51,21.10
2017,06,24,07,52,21.10
2017,06,24,07,53,21.20
2017,06,24,07,54,21.20
2017,06,24,07,55,21.20
2017,06,24,07,56,21.20
2017,06,24,07,57,21.20
2017,06,24,07,58,21.20
2017,06,24,07,59,21.20
2017,06,24,08,00,21.20
2017,06,24,08,01,21.20
2017,06,24,08,02,21.20
2017,06,24,08,03,21.20
2017,06,24,08,04,21.20
2017,06,24,08,05,21.20
2017,06,24,08,06,21.30
2017,06,24,08,07,21.30
2017,06,24,08,08,21.40
2017,06,24,08,09,21.40
2017,06,24,08,10,21.50
2017,06,24,08,11,21.60
2017,06,24,08,12,21.60
2017,06,24,08,13,21.70
2017,06,24,08,14,21.70
2017,06,24,08,15,21.70
2017,06,24,08,16,21.70
2017,06,24,08,17,21.80
2017,06,24,08,18,21.80
2017,06,24,08,19,21.80
2017,06,24,08,20,21.90
2017,06,24,08,21,21.90
2017,06,24,08,22,21.90
2017,06,24,08,23,22.00
2017,06,24,08,24,22.00
2017,06,24,08,25,22.10
2017,06,24,08,26,22.10
2017,06,24,08,27,22.10
2017,06,24,08,28,22.10
2017,06,24,08,29,22.20
2017,06,24,08,30,22.30
2017,06,24,08,31,22.40
2017,06,24,08,32,22.50
2017,06,24,08,33,22.70
2017,06,24,08,34,22.80
2017,06,24,08,35,22.90
2017,06,24,08,36,23.00
2017,06,24,08,37,23.00
2017,06,24,08,38,23.00
2017,06,24,08,39,23.00
2017,06,24,08,40,23.00
2017,06,24,08,41,22.90
2017,06,24,08,42,22.90
2017,06,24,08,43,22.90
2017,06,24,08,44,23.00
2017,06,24,08,45,23.00
2017,06,24,08,46,23.10
2017,06,24,08,47,23.20
2017,06,24,08,48,23.30
2017,06,24,08,49,23.40
2017,06,24,08,50,23.50
2017,06,24,08,51,23.60
2017,06,24,08,52,23.60
2017,06,24,08,53,23.60
2017,06,24,08,54,23.60
2017,06,24,08,55,23.50
2017,06,24,08,56,23.50
2017,06,24,08,57,23.50
2017,06,24,08,58,23.50
2017,06,24,08,59,23.40
2017,06,24,09,00,23.30
2017,06,24,09,01,23.20
2017,06,24,09,02,23.20
2017,06,24,09,03,23.30
2017,06,24,09,04,23.40
2017,06,24,09,05,23.50
2017,06,24,09,06,23.60
2017,06,24,09,07,23.70
2017,06,24,09,08,23.80
2017,06,24,09,09,23.80
2017,06,24,09,10,23.90
2017,06,24,09,11,23.90
2017,06,24,09,12,24.00
2017,06,24,09,13,24.10
2017,06,24,09,14,24.10
2017,06,24,09,15,24.10
2017,06,24,09,16,24.10
2017,06,24,09,17,24.00
2017,06,24,09,18,23.90
2017,06,24,09,19,23.80
2017,06,24,09,20,23.70
2017,06,24,09,21,23.70
2017,06,24,09,22,23.80
2017,06,24,09,23,23.80
2017,06,24,09,24,23.80
2017,06,24,09,25,23.80
2017,06,24,09,26,23.90
2017,06,24,09,27,24.00
2017,06,24,09,28,24.10
2017,06,24,09,29,24.00
2017,06,24,09,30,23.80
2017,06,24,09,31,23.70
2017,06,24,09,32,23.70
2017,06,24,09,33,23.70
2017,06,24,09,34,23.70
2017,06,24,09,35,23.80
2017,06,24,09,36,23.80
2017,06,24,09,37,23.90
2017,06,24,09,38,23.90
2017,06,24,09,39,24.00
2017,06,24,09,40,24.10
2017,06,24,09,41,24.20
2017,06,24,09,42,24.20
2017,06,24,09,43,24.20
2017,06,24,09,44,24.20
2017,06,24,09,45,24.20
2017,06,24,09,46,24.20
2017,06,24,09,47,24.30
2017,06,24,09,48,24.30
2017,06,24,09,49,24.30
2017,06,24,09,50,24.30
2017,06,24,09,51,24.20
2017,06,24,09,52,24.20
2017,06,24,09,53,24.20
2017,06,24,09,54,24.30
2017,06,24,09,55,24.40
2017,06,24,09,56,24.40
2017,06,24,09,57,24.40
2017,06,24,09,58,24.50
2017,06,24,09,59,24.50
2017,06,24,10,00,24.60
2017,06,24,10,01,24.80
2017,06,24,10,02,24.90
2017,06,24,10,03,25.00
2017,06,24,10,04,25.10
2017,06,24,10,05,25.20
2017,06,24,10,06,25.30
2017,06,24,10,07,25.20
2017,06,24,10,08,25.20
2017,06,24,10,09,25.40
2017,06,24,10,10,25.40
2017,06,24,10,11,25.50
2017,06,24,10,12,25.50
2017,06,24,10,13,25.40
2017,06,24,10,14,25.40
2017,06,24,10,15,25.40
2017,06,24,10,16,25.40
2017,06,24,10,17,25.40
2017,06,24,10,18,25.30
2017,06,24,10,19,25.30
2017,06,24,10,20,25.20
2017,06,24,10,21,25.10
2017,06,24,10,22,25.00
2017,06,24,10,23,24.90
2017,06,24,10,24,24.90
2017,06,24,10,25,24.90
2017,06,24,10,26,25.00
2017,06,24,10,27,25.00
2017,06,24,10,28,25.00
2017,06,24,10,29,25.10
2017,06,24,10,30,25.10
2017,06,24,10,31,25.10
2017,06,24,10,32,25.20
2017,06,24,10,33,25.30
2017,06,24,10,34,25.30
2017,06,24,10,35,25.30
2017,06,24,10,36,25.20
2017,06,24,10,37,25.20
2017,06,24,10,38,25.20
2017,06,24,10,39,25.30
2017,06,24,10,40,25.30
2017,06,24,10,41,25.40
2017,06,24,10,42,25.50
2017,06,24,10,43,25.60
2017,06,24,10,44,25.70
2017,06,24,10,45,25.70
2017,06,24,10,46,25.80
2017,06,24,10,47,25.80
2017,06,24,10,48,25.80
2017,06,24,10,49,25.80
2017,06,24,10,50,25.70
2017,06,24,10,51,25.60
2017,06,24,10,52,25.50
2017,06,24,10,53,25.50
2017,06,24,10,54,25.40
2017,06,24,10,55,25.40
2017,06,24,10,56,25.40
2017,06,24,10,57,25.50
2017,06,24,10,58,25.60
2017,06,24,10,59,25.60
2017,06,24,11,00,25.70
2017,06,24,11,01,25.70
2017,06,24,11,02,25.80
2017,06,24,11,03,25.80
2017,06,24,11,04,25.90
2017,06,24,11,05,25.90
2017,06,24,11,06,26.00
2017,06,24,11,07,26.10
2017,06,24,11,08,26.20
2017,06,24,11,09,26.30
2017,06,24,11,10,26.30
2017,06,24,11,11,26.30
2017,06,24,11,12,26.30
2017,06,24,11,13,26.30
2017,06,24,11,14,26.30
2017,06,24,11,15,26.30
2017,06,24,11,16,26.30
2017,06,24,11,17,26.40
2017,06,24,11,18,26.40
2017,06,24,11,19,26.50
2017,06,24,11,20,26.60
2017,06,24,11,21,26.60
2017,06,24,11,22,26.60
2017,06,24,11,23,26.50
2017,06,24,11,24,26.30
2017,06,24,11,25,26.20
2017,06,24,11,26,26.00
2017,06,24,11,27,25.90
2017,06,24,11,28,25.90
2017,06,24,11,29,25.70
2017,06,24,11,30,25.50
2017,06,24,11,31,25.50
2017,06,24,11,32,25.60
2017,06,24,11,33,25.60
2017,06,24,11,34,25.60
2017,06,24,11,35,25.70
2017,06,24,11,36,25.80
2017,06,24,11,37,25.80
2017,06,24,11,38,25.80
2017,06,24,11,39,25.80
2017,06,24,11,40,25.70
2017,06,24,11,41,25.60
2017,06,24,11,42,25.60
2017,06,24,11,43,25.50
2017,06,24,11,44,25.50
2017,06,24,11,45,25.60
2017,06,24,11,46,25.60
2017,06,24,11,47,25.70
2017,06,24,11,48,25.70
2017,06,24,11,49,25.70
2017,06,24,11,50,25.80
2017,06,24,11,51,25.90
2017,06,24,11,52,26.00
2017,06,24,11,53,26.20
2017,06,24,11,54,26.40
2017,06,24,11,55,26.50
2017,06,24,11,56,26.60
2017,06,24,11,57,26.50
2017,06,24,11,58,26.50
2017,06,24,11,59,26.30
2017,06,24,12,00,26.30
2017,06,24,12,01,26.30
2017,06,24,12,02,26.30
2017,06,24,12,03,26.20
2017,06,24,12,04,26.20
2017,06,24,12,05,26.20
2017,06,24,12,06,26.20
2017,06,24,12,07,26.20
2017,06,24,12,08,26.20
2017,06,24,12,09,26.30
2017,06,24,12,10,26.30
2017,06,24,12,11,26.40
2017,06,24,12,12,26.40
2017,06,24,12,13,26.30
2017,06,24,12,14,26.30
2017,06,24,12,15,26.30
2017,06,24,12,16,26.40
2017,06,24,12,17,26.60
2017,06,24,12,18,26.70
2017,06,24,12,19,26.80
2017,06,24,12,20,27.00
2017,06,24,12,21,27.20
2017,06,24,12,22,27.30
2017,06,24,12,23,27.40
2017,06,24,12,24,27.30
2017,06,24,12,25,27.20
2017,06,24,12,26,27.20
2017,06,24,12,27,27.30
2017,06,24,12,28,27.30
2017,06,24,12,29,27.40
2017,06,24,12,30,27.50
2017,06,24,12,31,27.50
2017,06,24,12,32,27.40
2017,06,24,12,33,27.40
2017,06,24,12,34,27.40
2017,06,24,12,35,27.30
2017,06,24,12,36,27.30
2017,06,24,12,37,27.20
2017,06,24,12,38,27.20
2017,06,24,12,39,27.20
2017,06,24,12,40,27.30
2017,06,24,12,41,27.40
2017,06,24,12,42,27.60
2017,06,24,12,43,27.80
2017,06,24,12,44,28.00
2017,06,24,12,45,28.10
2017,06,24,12,46,28.20
2017,06,24,12,47,28.20
2017,06,24,12,48,28.20
2017,06,24,12,49,28.30
2017,06,24,12,50,28.20
2017,06,24,12,51,28.20
2017,06,24,12,52,28.20
2017,06,24,12,53,28.10
2017,06,24,12,54,28.10
2017,06,24,12,55,28.20
2017,06,24,12,56,28.10
2017,06,24,12,57,28.00
2017,06,24,12,58,28.00
2017,06,24,12,59,28.00
2017,06,24,13,00,28.10
2017,06,24,13,01,28.10
2017,06,24,13,02,28.10
2017,06,24,13,03,28.00
2017,06,24,13,04,27.90
2017,06,24,13,05,27.90
2017,06,24,13,06,27.80
2017,06,24,13,07,27.70
2017,06,24,13,08,27.60
2017,06,24,13,09,27.70
2017,06,24,13,10,27.70
2017,06,24,13,11,27.70
2017,06,24,13,12,27.60
2017,06,24,13,13,27.50
2017,06,24,13,14,27.30
2017,06,24,13,15,27.20
2017,06,24,13,16,27.10
2017,06,24,13,17,26.90
2017,06,24,13,18,26.80
2017,06,24,13,19,26.60
2017,06,24,13,20,26.60
2017,06,24,13,21,26.60
2017,06,24,13,22,26.60
2017,06,24,13,23,26.60
2017,06,24,13,24,26.60
2017,06,24,13,25,26.50
2017,06,24,13,26,26.50
2017,06,24,13,27,26.50
2017,06,24,13,28,26.50
2017,06,24,13,29,26.50
2017,06,24,13,30,26.60
2017,06,24,13,31,26.70
2017,06,24,13,32,26.80
2017,06,24,13,33,26.90
2017,06,24,13,34,26.90
2017,06,24,13,35,26.80
2017,06,24,13,36,26.70
2017,06,24,13,37,26.70
2017,06,24,13,38,26.70
2017,06,24,13,39,26.70
2017,06,24,13,40,26.80
2017,06,24,13,41,26.80
2017,06,24,13,42,26.80
2017,06,24,13,43,26.80
2017,06,24,13,44,26.90
2017,06,24,13,45,26.90
2017,06,24,13,46,26.90
2017,06,24,13,47,26.80
2017,06,24,13,48,26.90
2017,06,24,13,49,27.00
2017,06,24,13,50,27.10
2017,06,24,13,51,27.20
2017,06,24,13,52,27.20
2017,06,24,13,53,27.20
2017,06,24,13,54,27.20
2017,06,24,13,55,27.00
2017,06,24,13,56,27.00
2017,06,24,13,57,26.90
2017,06,24,13,58,26.90
2017,06,24,13,59,27.00
2017,06,24,14,00,27.20
2017,06,24,14,01,27.30
2017,06,24,14,02,27.40
2017,06,24,14,03,27.50
2017,06,24,14,04,27.60
2017,06,24,14,05,27.60
2017,06,24,14,06,27.60
2017,06,24,14,07,27.70
2017,06,24,14,08,27.80
2017,06,24,14,09,27.80
2017,06,24,14,10,27.80
2017,06,24,14,11,27.80
2017,06,24,14,12,27.80
2017,06,24,14,13,27.70
2017,06,24,14,14,27.60
2017,06,24,14,15,27.40
2017,06,24,14,16,27.30
2017,06,24,14,17,27.30
2017,06,24,14,18,27.40
2017,06,24,14,19,27.50
2017,06,24,14,20,27.50
2017,06,24,14,21,27.50
2017,06,24,14,22,27.50
2017,06,24,14,23,27.70
2017,06,24,14,24,27.70
2017,06,24,14,25,27.80
2017,06,24,14,26,27.90
2017,06,24,14,27,28.00
2017,06,24,14,28,28.10
2017,06,24,14,29,28.10
2017,06,24,14,30,28.10
2017,06,24,14,31,28.10
2017,06,24,14,32,28.10
2017,06,24,14,33,28.20
2017,06,24,14,34,28.30
2017,06,24,14,35,28.30
2017,06,24,14,36,28.20
2017,06,24,14,37,28.10
2017,06,24,14,38,28.00
2017,06,24,14,39,27.90
2017,06,24,14,40,27.90
2017,06,24,14,41,27.90
2017,06,24,14,42,27.90
2017,06,24,14,43,28.00
2017,06,24,14,44,28.00
2017,06,24,14,45,28.00
2017,06,24,14,46,28.00
2017,06,24,14,47,28.00
2017,06,24,14,48,28.00
2017,06,24,14,49,28.00
2017,06,24,14,50,27.90
2017,06,24,14,51,28.00
2017,06,24,14,52,28.00
2017,06,24,14,53,27.90
2017,06,24,14,54,27.90
2017,06,24,14,55,27.80
2017,06,24,14,56,27.60
2017,06,24,14,57,27.60
2017,06,24,14,58,27.60
2017,06,24,14,59,27.50
2017,06,24,15,00,27.40
2017,06,24,15,01,27.50
2017,06,24,15,02,27.60
2017,06,24,15,03,27.60
2017,06,24,15,04,27.70
2017,06,24,15,05,27.70
2017,06,24,15,06,27.70
2017,06,24,15,07,27.70
2017,06,24,15,08,27.70
2017,06,24,15,09,27.70
2017,06,24,15,10,27.70
2017,06,24,15,11,27.80
2017,06,24,15,12,27.80
2017,06,24,15,13,27.80
2017,06,24,15,14,27.80
2017,06,24,15,15,27.90
2017,06,24,15,16,27.90
2017,06,24,15,17,27.90
2017,06,24,15,18,27.90
2017,06,24,15,19,28.00
2017,06,24,15,20,28.10
2017,06,24,15,21,28.00
2017,06,24,15,22,28.00
2017,06,24,15,23,28.00
2017,06,24,15,24,28.00
2017,06,24,15,25,27.90
2017,06,24,15,26,27.90
2017,06,24,15,27,27.80
2017,06,24,15,28,27.80
2017,06,24,15,29,27.80
2017,06,24,15,30,27.90
2017,06,24,15,31,27.90
2017,06,24,15,32,27.80
2017,06,24,15,33,27.80
2017,06,24,15,34,27.80
2017,06,24,15,35,27.80
2017,06,24,15,36,27.80
2017,06,24,15,37,27.90
2017,06,24,15,38,27.90
2017,06,24,15,39,27.90
2017,06,24,15,40,28.00
2017,06,24,15,41,28.10
2017,06,24,15,42,28.10
2017,06,24,15,43,28.20
2017,06,24,15,44,28.30
2017,06,24,15,45,28.30
2017,06,24,15,46,28.40
2017,06,24,15,47,28.50
2017,06,24,15,48,28.50
2017,06,24,15,49,28.60
2017,06,24,15,50,28.70
2017,06,24,15,51,28.70
2017,06,24,15,52,28.70
2017,06,24,15,53,28.60
2017,06,24,15,54,28.60
2017,06,24,15,55,28.50
2017,06,24,15,56,28.50
2017,06,24,15,57,28.40
2017,06,24,15,58,28.30
2017,06,24,15,59,28.30
2017,06,24,16,00,28.40
2017,06,24,16,01,28.50
2017,06,24,16,02,28.60
2017,06,24,16,03,28.60
2017,06,24,16,04,28.60
2017,06,24,16,05,28.40
2017,06,24,16,06,28.30
2017,06,24,16,07,28.30
2017,06,24,16,08,28.20
2017,06,24,16,09,28.20
2017,06,24,16,10,28.20
2017,06,24,16,11,28.20
2017,06,24,16,12,28.20
2017,06,24,16,13,28.30
2017,06,24,16,14,28.30
2017,06,24,16,15,28.40
2017,06,24,16,16,28.50
2017,06,24,16,17,28.50
2017,06,24,16,18,28.50
2017,06,24,16,19,28.40
2017,06,24,16,20,28.40
2017,06,24,16,21,28.40
2017,06,24,16,22,28.50
2017,06,24,16,23,28.60
2017,06,24,16,24,28.70
2017,06,24,16,25,28.90
2017,06,24,16,26,28.90
2017,06,24,16,27,28.90
2017,06,24,16,28,29.00
2017,06,24,16,29,29.10
2017,06,24,16,30,29.10
2017,06,24,16,31,29.10
2017,06,24,16,32,29.00
2017,06,24,16,33,28.90
2017,06,24,16,34,28.80
2017,06,24,16,35,28.60
2017,06,24,16,36,28.50
2017,06,24,16,37,28.40
2017,06,24,16,38,28.40
2017,06,24,16,39,28.50
2017,06,24,16,40,28.50
2017,06,24,16,41,28.50
2017,06,24,16,42,28.60
2017,06,24,16,43,28.60
2017,06,24,16,44,28.70
2017,06,24,16,45,28.70
2017,06,24,16,46,28.70
2017,06,24,16,47,28.70
2017,06,24,16,48,28.80
2017,06,24,16,49,28.80
2017,06,24,16,50,28.80
2017,06,24,16,51,28.80
2017,06,24,16,52,28.90
2017,06,24,16,53,28.90
2017,06,24,16,54,29.00
2017,06,24,16,55,29.00
2017,06,24,16,56,29.10
2017,06,24,16,57,29.20
2017,06,24,16,58,29.10
2017,06,24,16,59,29.10
2017,06,24,17,00,29.10
2017,06,24,17,01,29.10
2017,06,24,17,02,29.10
2017,06,24,17,03,29.00
2017,06,24,17,04,28.90
2017,06,24,17,05,28.90
2017,06,24,17,06,28.90
2017,06,24,17,07,28.80
2017,06,24,17,08,28.80
2017,06,24,17,09,28.90
2017,06,24,17,10,29.00
2017,06,24,17,11,29.00
2017,06,24,17,12,29.10
2017,06,24,17,13,29.10
2017,06,24,17,14,29.00
2017,06,24,17,15,28.90
2017,06,24,17,16,28.80
2017,06,24,17,17,28.70
2017,06,24,17,18,28.70
2017,06,24,17,19,28.70
2017,06,24,17,20,28.70
2017,06,24,17,21,28.70
2017,06,24,17,22,28.70